This demonstration page uses our WeatherBlox Daily Observations layout. Learn more.

Left ArrowRight Arrow

36.19886, -115.1175

Hourly Observations for May 14, 2020

Temp ( °F °C ) Dew Point ( °F °C ) Humidity (%) Winds ( mph kmh ) Pressure ( in mb ) Visibility ( mi km ) Precip ( " mm )
12:53 am 00:53 Clear 72 22.2 26 -3.3 18 18 S 17 28 29.78 1008 10 16 N/A
1:53 am 01:53 Clear 70 21.1 29 -1.7 22 22 S 12 19 29.79 1009 10 16 N/A
2:53 am 02:53 Clear 67 19.4 28 -2.2 23 23 SE 7 11 29.80 1009 10 16 N/A
3:53 am 03:53 Clear 66 18.9 28 -2.2 24 24 NE 6 9 29.81 1010 10 16 N/A
4:53 am 04:53 Clear 64 17.8 30 -1.1 28 28 NNW 5 7 29.82 1010 10 16 N/A
5:53 am 05:53 Sunny 63 17.2 30 -1.1 29 29 N 6 9 29.84 1011 10 16 N/A
6:53 am 06:53 Sunny 65 18.3 30 -1.1 27 27 NNW 8 13 29.86 1011 10 16 N/A
7:53 am 07:53 Sunny 68 20 30 -1.1 24 24 NNE 6 9 29.88 1012 10 16 N/A
8:53 am 08:53 Sunny 71 21.7 30 -1.1 22 22 N 3 6 29.88 1012 10 16 N/A
9:53 am 09:53 Sunny 75 23.9 30 -1.1 19 19 VRB 5 7 29.88 1012 10 16 N/A
10:53 am 10:53 Sunny 75 23.9 30 -1.1 19 19 SSW 6 9 29.88 1012 10 16 N/A
11:53 am 11:53 Sunny 80 26.7 30 -1.1 16 16 N N/A 29.87 1012 10 16 N/A
12:53 pm 12:53 Sunny 82 27.8 30 -1.1 15 15 E 8 13 29.85 1011 10 16 N/A
1:53 pm 13:53 Sunny 83 28.3 31 -0.6 15 15 N N/A 29.83 1010 10 16 N/A
2:53 pm 14:53 Sunny 84 28.9 31 -0.6 15 15 VRB 7 11 29.80 1009 10 16 N/A
3:53 pm 15:53 Sunny 86 30 31 -0.6 14 14 SE 10 17 29.78 1008 10 16 N/A
4:53 pm 16:53 Sunny 86 30 30 -1.1 13 13 VRB 5 7 29.77 1008 10 16 N/A
5:53 pm 17:53 Sunny 87 30.6 29 -1.7 12 12 S 9 15 29.76 1008 10 16 N/A
6:53 pm 18:53 Sunny 86 30 29 -1.7 13 13 S 12 19 29.76 1008 10 16 N/A
7:53 pm 19:53 Clear 84 28.9 30 -1.1 14 14 SW 9 15 29.76 1008 10 16 N/A
8:53 pm 20:53 Clear 82 27.8 30 -1.1 15 15 WSW 9 15 29.77 1008 10 16 N/A
9:53 pm 21:53 Clear 80 26.7 30 -1.1 16 16 VRB 6 9 29.78 1009 10 16 N/A
10:53 pm 22:53 Clear 78 25.6 31 -0.6 18 18 SSW 9 15 29.79 1009 10 16 N/A
11:53 pm 23:53 Clear 77 25 31 -0.6 18 18 SSW 9 15 29.79 1009 10 16 N/A

Powered by AerisWeather